Notices

What's New in latest Release from April 7th, 2021:

- Updated Glossary, including Speed of Maximum Gust, and Total Hourly Precipitation

- Updated national and regional climate services offices contacts and prices information

- Addition of station inventory lists for 1981-2010, 1971-2000, and 1961-1990 Normals.

If you haven't already, please take our survey and provide feedback about our website: https://eccc.sondage-survey.ca/f/LanguageSelection.aspx?s=442ca660-fcf1-47c0-95a9-59707d6fd709

Hourly Data Report for April 15, 2018

KENORA A
ONTARIO
Current Station Operator: NAVCAN

49°47'18.000" N
94°21'47.000" W
409.70 m
6034076
71850
YQK

Download Data

Hourly Data (April 2018)
Hourly Data Report for April 15, 2018
TIME
LST
Temp Definition
°C
Dew Point Definition
°C
Rel Hum Definition
%
Precip. Amount Definition
mm

Wind Dir Definition
10's deg

Wind Spd Definition
km/h
Visibility Definition
km
Stn Press Definition
kPa
Hmdx Definition


Wind Chill Definition


Weather Definition


00:00 -4.6 -14.3 47   9 23 24.1 98.24   -12 Cloudy
01:00 -5.1 -15.7 43   10 22 24.1 98.19   -12 LegendNANA
02:00 -6.2 -15.1 49   9 21 24.1 98.16   -13 LegendNANA
03:00 -6.8 -15.6 50   9 22 24.1 98.15   -14 Cloudy
04:00 -7.9 -16.0 53   8 17 24.1 98.14   -15 LegendNANA
05:00 -8.8 -16.3 55   7 17 24.1 98.15   -16 LegendNANA
06:00 -9.0 -16.6 55   6 17 24.1 98.15   -16 Mostly Cloudy
07:00 -8.0 -15.7 54   7 19 24.1 98.21   -15 LegendNANA
08:00 -6.4 -15.0 51   7 21 24.1 98.25   -13 LegendNANA
09:00 -5.5 -15.3 46   10 26 24.1 98.23   -13 Mostly Cloudy
10:00 -3.0 -14.0 43   8 21 24.1 98.13   -9 LegendNANA
11:00 -2.4 -13.9 41   7 22 24.1 98.04   -9 LegendNANA
12:00 -2.3 -13.6 42   9 19 24.1 98.00   -8 Cloudy
13:00 -2.0 -12.9 43   8 18 24.1 98.01   -7 LegendNANA
14:00 -1.4 -13.2 41   10 14 24.1 97.99   -6 LegendNANA
15:00 -0.8 -12.9 40   7 18 24.1 97.85   -6 Cloudy
16:00 0.1 -12.7 38   6 13 24.1 97.81     LegendNANA
17:00 -0.2 -11.6 42   7 13 24.1 97.79   -4 LegendNANA
18:00 0.2 -13.1 36   4 20 24.1 97.77     Cloudy
19:00 -1.1 -12.8 41   5 14 24.1 97.72   -6 LegendNANA
20:00 -2.0 -12.5 45   3 8 24.1 97.72   -5 LegendNANA
21:00 -2.0 -12.4 45   5 12 24.1 97.69   -6 Mostly Cloudy
22:00 -2.5 -12.4 47   4 14 24.1 97.62   -7 LegendNANA
23:00 -2.7 -13.0 45   4 16 24.1 97.56   -8 LegendNANA

Notes on Data Quality.

Legend

  • E = Estimated
  • M = Missing
  • NA = Not Available*
  • [empty] = Indicates an unobserved value
Date modified: